LSZHLSZS

Guest
Details From LSZH - Zurich
To LSZS - Samedan
Flight Number -
Tags decoded
Created
Modified
Stats Distance 110 nm / 204 km
Max Altitude 0 ft / 0 m
Waypoints 7
Social Downloads 3
Likes 0
Share VATSIM

Download

Looking for another format? Having issues loading an existing format? Contact us
Advertisement - Login to hide

Notes

Requested: LSZH ALBIX MOSIG ELMUR SOPER PIXOS UTAVO ABREG LSZS Unmatched points: MOSIG UTAVO

Route

LSZH ALBIX ELMUR SOPER PIXOS ABREG LSZS

ID Type Via Altitude Latitude Longitude Leg Dist Tot Dist Heading (true) Name
O LSZH APT - 0 ft / 0 m 47.46349˚ 8.54996˚ - 0 nm - Zurich
ALBIX FIX - 0 ft / 0 m 47.24972˚ 8.56444˚ 12 nm 12 nm 177° / 177° -
ELMUR FIX - 0 ft / 0 m 47.15667˚ 8.90750˚ 15 nm 27 nm 112° / 112° -
SOPER FIX - 0 ft / 0 m 46.88944˚ 8.94444˚ 16 nm 44 nm 175° / 175° -
PIXOS FIX - 0 ft / 0 m 46.60528˚ 8.98306˚ 17 nm 61 nm 175° / 175° -
ABREG FIX - 0 ft / 0 m 46.30694˚ 9.55139˚ 29 nm 90 nm 127° / 128° -
O LSZS APT - 0 ft / 0 m 46.53421˚ 9.88394˚ 19 nm 110 nm 45° / 45° Samedan

Altitude Profile

Advertisement - Login to hide

LSZH

Details ICAO LSZH (ZRH)
Name Zurich
Region Switzerland
Timezone Europe/Zurich (UTC+2.0)
Stats Elevation 1,416 ft / 432 m (AMSL)
Location 47.463489° 8.549964°
Runways 3
Magnetic Variation 2.410° E

METAR

LSZH 241550Z 26004KT 9999 FEW050 SCT060 21/08 Q1019 NOSIG

Decode

TAF

TAF LSZH 241425Z 2415/2521 VRB03KT 9999 FEW045 SCT100 TX21/2415Z TN10/2504Z TX22/2515Z TEMPO 2415/2501 04007KT BECMG 2507/2510 05008KT BECMG 2512/2515 CAVOK

Decode

Departure Runways

ID Width Length Bearing (true) Bearing (mag) Surface Threshold Offset Overrun Length
10 197 ft / 60 m 8,180 ft / 2,493 m 95.98° 93.57° Concrete 0 ft / 0 m 197 ft / 60 m
14 197 ft / 60 m 10,816 ft / 3,297 m 137.30° 134.89° Concrete 492 ft / 150 m 0 ft / 0 m
16 197 ft / 60 m 12,137 ft / 3,699 m 155.00° 152.59° Concrete 0 ft / 0 m 197 ft / 60 m
28 197 ft / 60 m 8,180 ft / 2,493 m 276.01° 273.60° Concrete 0 ft / 0 m 197 ft / 60 m
32 197 ft / 60 m 10,816 ft / 3,297 m 317.32° 314.91° Concrete 0 ft / 0 m 197 ft / 60 m
34 197 ft / 60 m 12,137 ft / 3,699 m 335.01° 332.60° Concrete 1,542 ft / 470 m 0 ft / 0 m

LSZS

Details ICAO LSZS (SMV)
Name Samedan
Region Switzerland
Timezone Europe/Zurich (UTC+2.0)
Stats Elevation 5,600 ft / 1,707 m (AMSL)
Location 46.534207° 9.883938°
Runways 1
Magnetic Variation 2.719° E

METAR

LSZS 241550Z 32012KT 9999 VCSH BKN050 12/02 Q1020 RMK U

Decode

TAF

Not found

Destination Runways

ID Width Length Bearing (true) Bearing (mag) Surface Threshold Offset Overrun Length
03 131 ft / 40 m 6,059 ft / 1,847 m 29.10° 26.38° Asphalt 0 ft / 0 m 0 ft / 0 m
21 131 ft / 40 m 6,059 ft / 1,847 m 209.10° 206.38° Asphalt 361 ft / 110 m 0 ft / 0 m

Popular Alternatives